When you browse on this site, cookies collect data to enhance your experience and personalize the content and advertising you see.
Visit our Privacy Policy to learn more. By continuing to use the site, you agree to this use of cookies and data.
  • In Latvia
  • List of Countries
  • For 7 days
  • Water Temperature
  • Satellite Maps
  • Weather Map
  • Weather Widgets
  • user-avatar
    Login

    Hourly Weather Adliswil

    Today, 18 July, Thursday

    Time Temperature Precipitation Wind Pressure Humidity
    00:00 +18°C° 0 mm 1 mps 714 mmHg 73%
    01:00 +16°C° 0 mm 1 mps 714 mmHg 75%
    02:00 +15°C° 0 mm 1 mps 714 mmHg 76%
    03:00 +15°C° 0 mm 1 mps 714 mmHg 78%
    04:00 +14°C° 0 mm 1 mps 714 mmHg 79%
    05:00 +15°C° 0 mm 1 mps 714 mmHg 77%
    06:00 +15°C° 0 mm 0 mps 714 mmHg 75%
    07:00 +16°C° 0 mm 0 mps 714 mmHg 73%
    08:00 +20°C° 0 mm 1 mps 714 mmHg 65%
    09:00 +22°C° 0 mm 1 mps 715 mmHg 58%
    10:00 +24°C° 0 mm 2 mps 715 mmHg 50%
    11:00 +25°C° 0 mm 2 mps 715 mmHg 47%
    12:00 +26°C° 0 mm 2 mps 715 mmHg 43%
    13:00 +27°C° 0 mm 3 mps 715 mmHg 40%
    14:00 +27°C° 0 mm 3 mps 715 mmHg 41%
    15:00 +27°C° 0 mm 2 mps 715 mmHg 42%
    16:00 +27°C° 0 mm 2 mps 715 mmHg 43%
    17:00 +26°C° 0 mm 2 mps 715 mmHg 51%
    18:00 +24°C° 0 mm 1 mps 715 mmHg 59%
    19:00 +23°C° 0 mm 1 mps 715 mmHg 67%
    20:00 +21°C° 0 mm 1 mps 715 mmHg 71%
    21:00 +20°C° 0 mm 1 mps 715 mmHg 76%
    22:00 +18°C° 0 mm 1 mps 716 mmHg 80%
    23:00 +18°C° 0 mm 1 mps 716 mmHg 81%

    Tomorrow, 19 July, Friday

    Time Temperature Precipitation Wind Pressure Humidity
    00:00 +16°C° 0 mm 1 mps 716 mmHg 82%
    01:00 +16°C° 0 mm 1 mps 716 mmHg 83%
    02:00 +16°C° 0 mm 1 mps 716 mmHg 83%
    03:00 +16°C° 0 mm 1 mps 716 mmHg 84%
    04:00 +15°C° 0 mm 1 mps 716 mmHg 85%
    05:00 +16°C° 0 mm 1 mps 716 mmHg 83%
    06:00 +16°C° 0 mm 0 mps 716 mmHg 80%
    07:00 +17°C° 0 mm 0 mps 716 mmHg 78%
    08:00 +19°C° 0 mm 0 mps 717 mmHg 71%
    09:00 +24°C° 0 mm 1 mps 717 mmHg 63%
    10:00 +26°C° 0 mm 1 mps 717 mmHg 56%
    11:00 +27°C° 0 mm 1 mps 717 mmHg 52%
    12:00 +27°C° 0 mm 1 mps 717 mmHg 48%
    13:00 +28°C° 0 mm 1 mps 717 mmHg 45%
    14:00 +28°C° 0.1 mm 2 mps 717 mmHg 45%
    15:00 +28°C° 0.1 mm 2 mps 716 mmHg 46%
    16:00 +28°C° 0.1 mm 2 mps 716 mmHg 47%
    17:00 +27°C° 0.1 mm 2 mps 717 mmHg 55%
    18:00 +25°C° 0.1 mm 2 mps 717 mmHg 64%
    19:00 +24°C° 0.1 mm 1 mps 717 mmHg 72%
    20:00 +22°C° 0 mm 1 mps 717 mmHg 76%
    21:00 +20°C° 0 mm 1 mps 717 mmHg 80%
    22:00 +19°C° 0 mm 1 mps 717 mmHg 85%
    23:00 +18°C° 0 mm 1 mps 717 mmHg 86%

    Day after tomorrow, 20 July, Saturday

    Time Temperature Precipitation Wind Pressure Humidity
    00:00 +18°C° 0 mm 1 mps 717 mmHg 88%
    01:00 +16°C° 0 mm 1 mps 716 mmHg 90%
    02:00 +16°C° 0 mm 1 mps 716 mmHg 91%
    03:00 +16°C° 0 mm 1 mps 716 mmHg 91%
    04:00 +15°C° 0 mm 1 mps 716 mmHg 91%
    05:00 +18°C° 0 mm 1 mps 716 mmHg 87%
    06:00 +19°C° 0 mm 1 mps 716 mmHg 84%
    07:00 +18°C° 0 mm 0 mps 716 mmHg 80%
    08:00 +21°C° 0 mm 0 mps 717 mmHg 70%
    09:00 +24°C° 0 mm 0 mps 717 mmHg 60%
    10:00 +27°C° 0 mm 0 mps 718 mmHg 51%
    11:00 +30°C° 0 mm 1 mps 718 mmHg 46%
    12:00 +30°C° 0 mm 2 mps 718 mmHg 41%
    13:00 +31°C° 0 mm 3 mps 718 mmHg 37%
    14:00 +31°C° 0.1 mm 3 mps 718 mmHg 37%
    15:00 +31°C° 0.1 mm 3 mps 718 mmHg 36%
    16:00 +31°C° 0.1 mm 3 mps 718 mmHg 36%
    17:00 +30°C° 0 mm 3 mps 718 mmHg 46%
    18:00 +28°C° 0 mm 2 mps 718 mmHg 55%
    19:00 +26°C° 0 mm 1 mps 717 mmHg 64%
    20:00 +24°C° 0 mm 1 mps 718 mmHg 67%
    21:00 +23°C° 0 mm 1 mps 718 mmHg 70%
    22:00 +21°C° 0 mm 1 mps 718 mmHg 73%
    23:00 +21°C° 0 mm 1 mps 718 mmHg 73%

    21 July, Sunday

    Time Temperature Precipitation Wind Pressure Humidity
    00:00 +21°C° 0 mm 1 mps 718 mmHg 72%
    01:00 +20°C° 0 mm 1 mps 718 mmHg 72%
    02:00 +20°C° 0 mm 1 mps 719 mmHg 74%
    03:00 +19°C° 0 mm 1 mps 719 mmHg 77%
    04:00 +19°C° 0 mm 1 mps 719 mmHg 79%
    05:00 +20°C° 0.1 mm 1 mps 719 mmHg 78%
    06:00 +19°C° 0.1 mm 0 mps 719 mmHg 78%
    07:00 +20°C° 0.1 mm 0 mps 720 mmHg 77%
    08:00 +24°C° 0 mm 1 mps 720 mmHg 69%
    09:00 +26°C° 0 mm 1 mps 720 mmHg 61%
    10:00 +28°C° 0 mm 1 mps 721 mmHg 53%
    11:00 +29°C° 0 mm 2 mps 721 mmHg 50%
    12:00 +30°C° 0 mm 2 mps 721 mmHg 47%
    13:00 +31°C° 0 mm 2 mps 721 mmHg 44%
    14:00 +31°C° 0 mm 2 mps 721 mmHg 44%
    15:00 +32°C° 0 mm 2 mps 721 mmHg 44%
    16:00 +32°C° 0 mm 2 mps 720 mmHg 44%
    17:00 +30°C° 0.1 mm 2 mps 720 mmHg 53%
    18:00 +28°C° 0.1 mm 2 mps 720 mmHg 62%
    19:00 +26°C° 0.1 mm 1 mps 720 mmHg 71%
    20:00 +25°C° 0.5 mm 1 mps 720 mmHg 77%
    21:00 +23°C° 0.5 mm 1 mps 720 mmHg 82%
    22:00 +21°C° 0.5 mm 1 mps 720 mmHg 88%
    23:00 +18°C° 0.1 mm 0 mps 720 mmHg 89%

    22 July, Monday

    Time Temperature Precipitation Wind Pressure Humidity
    00:00 +18°C° 0.1 mm 0 mps 720 mmHg 90%
    01:00 +17°C° 0.1 mm 0 mps 720 mmHg 91%
    02:00 +17°C° 0.3 mm 0 mps 720 mmHg 92%
    03:00 +17°C° 0.3 mm 0 mps 720 mmHg 92%
    04:00 +17°C° 0.3 mm 0 mps 720 mmHg 93%
    05:00 +18°C° 0.3 mm 0 mps 720 mmHg 92%
    06:00 +18°C° 0.3 mm 0 mps 720 mmHg 91%
    07:00 +19°C° 0.3 mm 0 mps 720 mmHg 90%
    08:00 +22°C° 0.1 mm 0 mps 720 mmHg 82%
    09:00 +24°C° 0.1 mm 0 mps 721 mmHg 74%
    10:00 +26°C° 0.1 mm 0 mps 721 mmHg 65%
    11:00 +30°C° 0 mm 1 mps 721 mmHg 59%
    12:00 +32°C° 0 mm 1 mps 721 mmHg 53%
    13:00 +33°C° 0 mm 1 mps 720 mmHg 46%
    14:00 +33°C° 0 mm 1 mps 720 mmHg 46%
    15:00 +33°C° 0 mm 1 mps 720 mmHg 46%
    16:00 +33°C° 0 mm 1 mps 720 mmHg 45%
    17:00 +31°C° 0.3 mm 1 mps 720 mmHg 56%
    18:00 +29°C° 0.3 mm 2 mps 720 mmHg 66%
    19:00 +27°C° 0.3 mm 2 mps 720 mmHg 77%
    20:00 +25°C° 0.5 mm 1 mps 720 mmHg 81%
    21:00 +24°C° 0.5 mm 1 mps 720 mmHg 85%
    22:00 +22°C° 0.5 mm 1 mps 720 mmHg 89%
    23:00 +22°C° 0 mm 1 mps 720 mmHg 90%

    23 July, Tuesday

    Time Temperature Precipitation Wind Pressure Humidity
    00:00 +21°C° 0 mm 1 mps 720 mmHg 91%
    01:00 +19°C° 0 mm 0 mps 719 mmHg 91%
    02:00 +18°C° 0 mm 0 mps 719 mmHg 91%
    03:00 +18°C° 0 mm 0 mps 719 mmHg 92%
    04:00 +18°C° 0 mm 0 mps 719 mmHg 92%
    05:00 +18°C° 0 mm 0 mps 719 mmHg 90%
    06:00 +19°C° 0 mm 0 mps 719 mmHg 89%
    07:00 +20°C° 0 mm 0 mps 719 mmHg 88%
    08:00 +22°C° 0 mm 0 mps 719 mmHg 79%
    09:00 +26°C° 0 mm 1 mps 719 mmHg 71%
    10:00 +28°C° 0 mm 1 mps 719 mmHg 63%
    11:00 +30°C° 0 mm 1 mps 719 mmHg 57%
    12:00 +31°C° 0 mm 1 mps 719 mmHg 51%
    13:00 +34°C° 0 mm 2 mps 719 mmHg 45%
    14:00 +34°C° 0 mm 2 mps 719 mmHg 44%
    15:00 +34°C° 0 mm 2 mps 718 mmHg 42%
    16:00 +34°C° 0 mm 2 mps 718 mmHg 41%
    17:00 +31°C° 0 mm 2 mps 718 mmHg 50%
    18:00 +29°C° 0 mm 2 mps 718 mmHg 60%
    19:00 +28°C° 0 mm 2 mps 717 mmHg 69%
    20:00 +26°C° 0 mm 2 mps 717 mmHg 75%
    21:00 +24°C° 0 mm 2 mps 717 mmHg 82%
    22:00 +23°C° 0 mm 1 mps 717 mmHg 88%
    23:00 +22°C° 0 mm 1 mps 717 mmHg 89%
    Show more